Location: Stigler
(35.2540°N, 95.1230°W)
Time: 06:18:16
(UTC-05:00)

Cosmos 1544 - Pass Details

Date: 26 September 2017
Orbit: 478 x 496 km, 82.5° (Epoch: 23 October)

Event Time Altitude Azimuth Distance (km) Brightness Sun altitude
Rises 20:29:13 0° 196° (SSW) 2,522 6.8 -16.7°
Reaches altitude 10° 20:31:21 10° 201° (SSW) 1,646 5.9 -17.2°
Maximum altitude 20:34:51 51° 278° (W) 608 3.9 -17.9°
Drops below altitude 10° 20:38:23 10° 356° (N) 1,657 5.9 -18.6°
Sets 20:40:32 0° 1° (N) 2,540 6.9 -19.0°
